FW9019 Weather Reports


time (UTC)temp
C
wind
direction
speed
KPH
gust
KPH
rain 1hr
cm
rain 24hr
cm
rain mn
cm
humidity
%
barometer
mb
20260509064042 11 0.0 0.0 0.00 0.00 0.00 90 1007.8
20260509063103 11 144 0.0 3.2 0.00 0.00 0.00 90 1007.8
20260509062107 11 0.0 0.0 0.00 0.00 0.00 90 1007.9
20260509061023 11 145 0.0 3.2 0.00 0.00 0.00 90 1008.1
20260509060054 11 145 1.6 3.2 0.00 0.00 0.00 90 1008.3
20260509055046 11 145 0.0 1.6 0.00 0.00 0.00 90 1008.4
20260509054117 11 0.0 0.0 0.00 0.00 0.00 90 1008.6
20260509053107 11 0.0 0.0 0.00 0.00 0.00 90 1008.5
20260509052047 11 0.0 0.0 0.00 0.00 0.00 90 1008.6
20260509051118 11 151 0.0 1.6 0.00 0.00 0.00 90 1008.5
20260509050131 11 166 0.0 1.6 0.00 0.00 0.00 90 1008.6
20260509045018 11 162 1.6 3.2 0.00 0.00 0.00 90 1008.5
20260509044030 11 158 0.0 1.6 0.00 0.00 0.00 90 1008.6
20260509043111 11 158 0.0 1.6 0.00 0.00 0.00 90 1008.4
20260509042051 11 211 0.0 1.6 0.00 0.00 0.00 90 1008.5
20260509041031 11 150 0.0 1.6 0.00 0.00 0.00 90 1008.3
20260509040114 11 0.0 0.0 0.00 0.00 0.00 89 1008.3
20260509035054 11 152 0.0 1.6 0.00 0.00 0.00 89 1008.4
20260509034034 11 0.0 0.0 0.00 0.00 0.00 89 1008.4
20260509033115 11 0.0 0.0 0.00 0.00 0.00 89 1008.4
20260509032055 11 0.0 0.0 0.00 0.00 0.00 89 1008.4
20260509031035 11 152 0.0 1.6 0.00 0.00 0.00 89 1008.4
20260509030117 11 0.0 0.0 0.00 0.00 0.00 89 1008.5
20260509025058 11 152 0.0 1.6 0.00 0.00 0.00 89 1008.7
20260509024037 11 152 0.0 1.6 0.00 0.00 0.00 89 1008.7
20260509023017 11 0.0 0.0 0.00 0.00 0.00 89 1008.8
20260509022100 11 151 0.0 1.6 0.00 0.00 0.00 89 1009.0
20260509021110 11 152 1.6 3.2 0.00 0.00 0.00 89 1008.7
20260509020020 11 152 1.6 4.8 0.00 0.00 0.00 89 1008.7
20260509015101 11 213 0.0 1.6 0.00 0.00 0.00 89 1008.4
20260509014101 11 134 0.0 3.2 0.00 0.00 0.00 89 1008.5
20260509013021 11 135 0.0 1.6 0.00 0.00 0.00 89 1008.5
20260509012103 11 134 1.6 3.2 0.00 0.00 0.00 89 1008.4
20260509011043 11 138 1.6 3.2 0.00 0.00 0.00 89 1008.4
20260509010043 11 138 0.0 1.6 0.00 0.00 0.00 89 1008.6
20260509005125 11 0.0 0.0 0.00 0.00 0.00 89 1008.7
20260509004045 11 0.0 0.0 0.00 0.00 0.00 88 1008.5
20260509003025 11 0.0 0.0 0.00 0.00 0.00 88 1008.4
20260509002127 11 138 0.0 1.6 0.00 0.00 0.00 88 1008.5
20260509001047 11 138 0.0 1.6 0.00 0.00 0.00 88 1008.8
20260509000027 11 138 1.6 4.8 0.00 0.00 0.00 88 1008.9
20260508235130 11 140 0.0 1.6 0.00 0.00 0.00 88 1008.9
20260508234049 11 0.0 0.0 0.00 0.00 0.00 88 1008.9
20260508233030 11 140 0.0 3.2 0.00 0.00 0.00 87 1008.8
20260508232111 11 140 1.6 3.2 0.00 0.00 0.00 87 1008.8
20260508231051 11 0.0 0.0 0.00 0.00 0.00 87 1009.0
20260508230031 11 140 0.0 1.6 0.00 0.00 0.00 87 1009.2
20260508225113 11 0.0 0.0 0.00 0.00 0.00 86 1009.1
20260508224053 12 140 0.0 1.6 0.00 0.00 0.00 86 1008.9
20260508223033 12 140 0.0 3.2 0.00 0.00 0.00 85 1009.1
20260508222135 12 0.0 0.0 0.00 0.00 0.00 85 1009.3
20260508221115 12 140 0.0 1.6 0.00 0.00 0.00 84 1009.3
20260508220035 12 0.0 0.0 0.00 0.00 0.00 84 1009.4
20260508215117 12 140 0.0 1.6 0.00 0.00 0.00 83 1009.5
20260508214057 12 0.0 0.0 0.00 0.00 0.00 82 1009.4
20260508213057 12 140 0.0 3.2 0.00 0.00 0.00 81 1009.2
20260508212017 13 140 1.6 3.2 0.00 0.00 0.00 79 1009.2
20260508211100 13 156 1.6 4.8 0.00 0.00 0.00 76 1009.1
20260508210100 15 194 3.2 8.0 0.00 0.00 0.00 66 1009.2
20260508205019 16 0.0 0.0 0.00 0.00 0.00 60 1008.8
20260508204121 16 0.0 0.0 0.00 0.00 0.00 57 1008.7
20260508203041 17 119 1.6 3.2 0.00 0.00 0.00 54 1008.7
20260508202021 17 118 1.6 4.8 0.00 0.00 0.00 50 1008.9
20260508201103 17 124 0.0 3.2 0.00 0.00 0.00 51 1008.9
20260508200043 17 124 0.0 1.6 0.00 0.00 0.00 50 1009.1
20260508195023 17 124 1.6 3.2 0.00 0.00 0.00 50 1009.1
20260508194105 17 124 1.6 3.2 0.00 0.00 0.00 49 1009.2
20260508193045 17 124 1.6 4.8 0.00 0.00 0.00 49 1009.4
20260508192025 17 124 1.6 3.2 0.00 0.00 0.00 51 1009.6
20260508191107 17 124 1.6 1.6 0.00 0.00 0.00 51 1009.7
20260508190047 17 125 3.2 4.8 0.00 0.00 0.00 50 1009.9
20260508185027 16 119 3.2 4.8 0.00 0.00 0.00 51 1010.0
20260508184110 16 105 1.6 3.2 0.00 0.00 0.00 52 1010.3
20260508183049 16 106 3.2 4.8 0.00 0.00 0.00 51 1010.4
20260508182029 16 106 3.2 4.8 0.00 0.00 0.00 50 1010.5
20260508181131 16 108 1.6 4.8 0.00 0.00 0.00 50 1010.6
20260508180051 16 108 1.6 3.2 0.00 0.00 0.00 50 1010.5
20260508175051 16 106 1.6 4.8 0.00 0.00 0.00 49 1010.6
20260508174113 16 116 3.2 4.8 0.00 0.00 0.00 49 1010.8
20260508173053 17 168 3.2 8.0 0.00 0.00 0.00 47 1010.8
20260508172033 18 88 3.2 4.8 0.00 0.00 0.00 45 1010.7
20260508171115 19 121 3.2 8.0 0.00 0.00 0.00 43 1010.8
20260508170055 18 80 3.2 8.0 0.00 0.00 0.00 44 1011.1
20260508165035 18 67 3.2 9.7 0.00 0.00 0.00 44 1011.3
20260508164117 18 131 1.6 3.2 0.00 0.00 0.00 44 1011.5
20260508163026 17 92 3.2 8.0 0.00 0.00 0.00 44 1011.6
20260508162037 18 120 4.8 9.7 0.00 0.00 0.00 41 1011.8
20260508161018 18 78 4.8 11.3 0.00 0.00 0.00 42 1011.6
20260508160031 17 101 1.6 4.8 0.00 0.00 0.00 45 1011.9
20260508155041 17 111 1.6 4.8 0.00 0.00 0.00 45 1012.0
20260508154020 17 99 3.2 3.2 0.00 0.00 0.00 46 1011.9
20260508153030 16 106 1.6 4.8 0.00 0.00 0.00 47 1012.0
20260508152041 16 104 3.2 8.0 0.00 0.00 0.00 46 1012.1
20260508151025 17 88 3.2 8.0 0.00 0.00 0.00 45 1012.1
20260508145205 17 94 1.6 4.8 0.00 0.00 0.00 44 1012.2
20260508144055 17 79 3.2 11.3 0.00 0.00 0.00 44 1012.3
20260508143035 17 86 3.2 8.0 0.00 0.00 0.00 44 1012.5
20260508142136 16 89 3.2 4.8 0.00 0.00 0.00 45 1012.5
20260508141025 16 90 3.2 4.8 0.00 0.00 0.00 46 1012.6
20260508140108 15 102 3.2 8.0 0.00 0.00 0.00 47 1012.7
20260508135047 15 90 3.2 8.0 0.00 0.00 0.00 46 1012.7
20260508134027 15 91 1.6 3.2 0.00 0.00 0.00 47 1012.8
20260508133130 14 80 3.2 9.7 0.00 0.00 0.00 48 1012.8
20260508132018 14 93 4.8 4.8 0.00 0.00 0.00 47 1013.0
20260508131120 14 97 3.2 11.3 0.00 0.00 0.00 48 1012.9
20260508130111 14 108 1.6 4.8 0.00 0.00 0.00 47 1013.0
20260508125051 15 108 1.6 1.6 0.00 0.00 0.00 45 1012.8
20260508124102 13 108 1.6 3.2 0.00 0.00 0.00 47 1012.8
20260508123144 13 108 1.6 1.6 0.00 0.00 0.00 48 1012.6
20260508122022 12 112 1.6 3.2 0.00 0.00 0.00 51 1012.7
20260508121053 11 110 0.0 1.6 0.00 0.00 0.00 54 1012.8
20260508120115 10 0.0 0.0 0.00 0.00 0.00 58 1012.9
20260508115055 9 0.0 0.0 0.00 0.00 0.00 59 1012.6
20260508114035 8 0.0 0.0 0.00 0.00 0.00 61 1012.6
20260508113120 7 0.0 0.0 0.00 0.00 0.00 64 1012.6
20260508112026 8 0.0 0.0 0.00 0.00 0.00 63 1012.7
20260508111108 8 0.0 0.0 0.00 0.00 0.00 62 1012.6
20260508110049 8 110 0.0 1.6 0.00 0.00 0.00 62 1012.4
20260508105059 8 110 0.0 1.6 0.00 0.00 0.00 61 1012.3
20260508104130 8 110 0.0 1.6 0.00 0.00 0.00 61 1012.2
20260508103110 8 110 0.0 1.6 0.00 0.00 0.00 62 1012.2
20260508102030 8 110 0.0 1.6 0.00 0.00 0.00 61 1012.2
20260508101112 8 110 0.0 1.6 0.00 0.00 0.00 62 1012.2
20260508100052 8 0.0 0.0 0.00 0.00 0.00 61 1012.3
20260508095032 8 0.0 0.0 0.00 0.00 0.00 60 1012.3
20260508094134 9 0.0 0.0 0.00 0.00 0.00 59 1012.3
20260508093043 9 110 0.0 1.6 0.00 0.00 0.00 58 1012.3
20260508092105 10 110 0.0 1.6 0.00 0.00 0.00 57 1012.3
20260508091045 10 0.0 0.0 0.00 0.00 0.00 56 1012.3
20260508090025 10 110 0.0 1.6 0.00 0.00 0.00 55 1012.3
20260508085107 10 110 1.6 3.2 0.00 0.00 0.00 55 1012.3
20260508084107 10 110 1.6 3.2 0.00 0.00 0.00 55 1012.5
20260508083100 10 110 0.0 1.6 0.00 0.00 0.00 55 1012.6
20260508082110 10 109 1.6 4.8 0.00 0.00 0.00 55 1012.6
20260508081113 10 108 0.0 1.6 0.00 0.00 0.00 55 1012.7
20260508080120 10 108 1.6 4.8 0.00 0.00 0.00 55 1012.8
20260508075041 10 108 1.6 3.2 0.00 0.00 0.00 55 1013.0
20260508074020 10 108 1.6 3.2 0.00 0.00 0.00 54 1012.8
20260508073031 11 108 3.2 4.8 0.00 0.00 0.00 52 1012.7
20260508072113 11 113 1.6 3.2 0.00 0.00 0.00 51 1013.1
20260508071042 10 113 1.6 3.2 0.00 0.00 0.00 51 1013.0
20260508070033 10 113 1.6 4.8 0.00 0.00 0.00 52 1012.8
20260508065044 10 113 0.0 3.2 0.00 0.00 0.00 53 1012.9